FW9692 Weather Reports


time (UTC)temp
C
wind
direction
speed
KPH
gust
KPH
rain 1hr
cm
rain 24hr
cm
rain mn
cm
humidity
%
barometer
mb
20260906194527 32 142 14.5 33.8 0.00 0.36 0.08 39 999.8
20260906193012 32 69 17.7 25.7 0.00 0.36 0.08 39 999.8
20260906191508 32 161 22.5 30.6 0.00 0.36 0.08 40 1000.1
20260906190003 31 108 16.1 29.0 0.00 0.36 0.08 41 1000.3
20260906184608 31 113 17.7 30.6 0.03 0.36 0.08 42 1000.5
20260906183102 31 130 22.5 30.6 0.03 0.36 0.08 44 1000.6
20260906181559 31 141 17.7 32.2 0.03 0.36 0.08 44 1000.8
20260906180053 31 138 16.1 30.6 0.03 0.36 0.08 47 1001.0
20260906174545 30 105 11.3 27.4 0.00 0.33 0.05 48 1001.3
20260906173139 30 90 9.7 20.9 0.00 0.33 0.05 50 1001.5
20260906171535 30 128 19.3 27.4 0.00 0.33 0.05 51 1001.5
20260906170033 29 93 11.3 19.3 0.00 0.33 0.05 54 1001.6
20260906164530 29 117 11.3 19.3 0.00 0.33 0.05 56 1001.6
20260906163030 28 88 11.3 19.3 0.00 0.33 0.05 57 1001.6
20260906161530 28 92 9.7 17.7 0.00 0.33 0.05 60 1001.5
20260906160037 28 109 6.4 12.9 0.00 0.33 0.05 60 1001.4
20260906154535 27 102 4.8 12.9 0.00 0.33 0.05 65 1001.3
20260906153037 27 130 6.4 12.9 0.03 0.33 0.05 65 1001.1
20260906151536 26 93 4.8 11.3 0.03 0.33 0.05 68 1001.1
20260906150018 25 137 11.3 14.5 0.03 0.33 0.05 69 1001.1
20260906144510 25 142 1.6 11.3 0.03 0.33 0.05 72 1001.2
20260906143008 25 162 4.8 12.9 0.00 0.30 0.03 72 1001.1
20260906141508 24 126 9.7 19.3 0.00 0.30 0.03 72 1001.0
20260906140010 24 151 9.7 17.7 0.00 0.30 0.03 73 1000.9
20260906134505 23 135 8.0 14.5 0.00 0.30 0.03 74 1000.7
20260906133004 23 139 14.5 19.3 0.00 0.30 0.03 74 1000.6
20260906131508 23 142 12.9 16.1 0.00 0.30 0.03 74 1000.4
20260906130003 23 142 9.7 14.5 0.00 0.30 0.03 74 1000.3
20260906124603 23 175 8.0 14.5 0.00 0.30 0.03 74 1000.2
20260906123103 23 139 6.4 14.5 0.00 0.30 0.03 74 1000.0
20260906121556 23 325 1.6 6.4 0.00 0.30 0.03 74 999.8
20260906120056 23 298 1.6 8.0 0.00 0.30 0.03 74 999.8
20260906114554 23 244 1.6 6.4 0.00 0.30 0.03 73 999.5
20260906113158 23 248 3.2 8.0 0.03 0.30 0.03 74 999.4
20260906111553 23 34 0.0 9.7 0.03 0.30 0.03 72 999.5
20260906110051 23 129 12.9 17.7 0.03 0.30 0.03 70 999.2
20260906104548 24 130 14.5 20.9 0.03 0.30 0.03 70 999.0
20260906103054 24 142 16.1 17.7 0.03 0.30 0.03 69 999.1
20260906101546 25 147 12.9 17.7 0.00 0.28 0.00 68 999.0
20260906100050 24 147 11.3 14.5 0.00 0.28 0.00 68 999.0
20260906094548 24 158 9.7 12.9 0.00 0.28 0.00 68 998.9
20260906093043 24 192 4.8 8.0 0.00 0.28 0.00 70 999.0
20260906091541 24 344 3.2 6.4 0.00 0.28 0.00 72 999.1
20260906090040 24 47 3.2 8.0 0.00 0.28 0.00 71 999.1
20260906084535 24 71 3.2 6.4 0.00 0.28 0.28 72 998.9
20260906083040 23 114 4.8 11.3 0.00 0.28 0.28 74 999.0
20260906081536 24 294 3.2 9.7 0.03 0.28 0.28 73 999.2
20260906080033 25 9 8.0 14.5 0.03 0.28 0.28 70 999.1
20260906074534 25 346 9.7 16.1 0.03 0.28 0.28 70 999.2
20260906073036 25 61 11.3 17.7 0.03 0.28 0.28 69 999.4
20260906071529 26 85 16.1 19.3 0.00 0.25 0.25 65 999.4
20260906070031 27 98 11.3 22.5 0.00 0.25 0.25 59 999.5
20260906064534 28 90 11.3 14.5 0.00 0.25 0.25 52 999.6
20260906063028 28 146 4.8 14.5 0.00 0.25 0.25 52 999.6
20260906061528 27 219 4.8 9.7 0.00 0.25 0.25 56 999.4
20260906060032 27 243 6.4 11.3 0.00 0.25 0.25 58 999.4
20260906054529 26 236 9.7 17.7 0.03 0.25 0.25 60 999.6
20260906053030 26 242 12.9 19.3 0.03 0.25 0.25 60 999.6
20260906051532 26 232 8.0 11.3 0.03 0.25 0.25 65 999.6
20260906050053 26 262 12.9 19.3 0.03 0.25 0.25 63 999.6
20260906044528 26 267 14.5 20.9 0.03 0.23 0.23 64 999.6
20260906043030 26 275 16.1 24.1 0.03 0.23 0.23 64 999.6
20260906041526 27 268 29.0 37.0 0.05 0.23 0.23 57 999.4
20260906040036 25 303 27.4 33.8 0.05 0.23 0.23 68 999.6
20260906034527 25 340 24.1 30.6 0.08 0.20 0.20 68 999.8
20260906033031 25 336 24.1 29.0 0.08 0.20 0.20 73 999.6
20260906031539 25 239 17.7 20.9 0.08 0.18 0.18 72 999.2
20260906030032 25 225 22.5 30.6 0.13 0.18 0.18 68 998.6
20260906024529 25 241 29.0 33.8 0.10 0.15 0.15 65 998.4
20260906023041 26 227 24.1 27.4 0.10 0.13 0.13 63 998.5
20260906021518 26 178 9.7 25.7 0.08 0.10 0.10 59 998.5
20260906020041 25 88 48.3 54.7 0.08 0.08 0.08 65 998.4
20260906014521 28 23 19.3 24.1 0.05 0.05 0.05 55 997.6
20260906013020 27 305 27.4 33.8 0.05 0.05 0.05 57 997.3
20260906011513 28 292 24.1 35.4 0.03 0.03 0.03 53 997.3
20260906010012 30 317 30.6 43.5 0.00 0.00 0.00 47 997.4
20260906004511 32 348 33.8 46.7 0.00 0.00 0.00 40 997.2
20260906003011 33 236 20.9 24.1 0.00 0.00 0.00 36 996.6
20260906001511 33 248 17.7 30.6 0.00 0.00 0.00 36 996.5
20260906000010 34 269 12.9 17.7 0.00 0.00 0.00 33 996.3
20260905234509 34 246 8.0 14.5 0.00 0.00 0.00 33 996.4
20260905233023 34 273 9.7 17.7 0.00 0.00 0.00 35 996.3
20260905231514 33 275 17.7 29.0 0.00 0.00 0.00 34 996.3
20260905230013 33 279 30.6 40.2 0.00 0.00 0.00 34 996.1
20260905224511 34 269 22.5 25.7 0.00 0.00 0.00 34 996.1
20260905223007 35 133 8.0 22.5 0.00 0.00 0.00 29 996.1
20260905221508 36 98 6.4 16.1 0.00 0.00 0.00 29 996.1
20260905220006 35 123 8.0 19.3 0.00 0.00 0.00 30 996.1
20260905214505 35 92 9.7 24.1 0.00 0.00 0.00 30 996.3
20260905213003 35 93 9.7 24.1 0.00 0.00 0.00 30 996.4
20260905211502 35 92 11.3 22.5 0.00 0.00 0.00 31 996.6
20260905210103 36 90 16.1 30.6 0.00 0.00 0.00 30 996.7
20260905204558 36 146 8.0 14.5 0.00 0.00 0.00 30 997.0
20260905203001 36 168 16.1 24.1 0.00 0.00 0.00 30 997.3
20260905201602 35 63 11.3 20.9 0.00 0.00 0.00 32 997.5
20260905200058 35 117 9.7 25.7 0.00 0.00 0.00 32 997.8